Ajaccio, France

9:46 AM CEST on March 28, 2017 (GMT +0200)
Campo Dell' Oro

Weather History for LFKJ - December, 2013

Change the Weather History Date:

Monday, December 16, 2013

  Actual Average Record
Temperature  
Mean Temperature 50 °F -  
Max Temperature 60 °F 55 °F 64 °F (2006)
Min Temperature 39 °F 38 °F 26 °F (2010)
Degree Days  
Heating Degree Days 16    
Moisture  
Dew Point 42 °F    
Average Humidity 80    
Maximum Humidity 93    
Minimum Humidity 53    
Precipitation  
Precipitation 0.00 in 0.10 in - ()
Sea Level Pressure  
Sea Level Pressure 30.53 in    
Wind  
Wind Speed 7 mph ()    
Max Wind Speed 12 mph    
Max Gust Speed -    
Visibility 6.7 miles    
Events      
Averages and records for this station are not official NWS values.
T = Trace of Precipitation, MM = Missing Value Source: Averaged Metar Reports

Daily Weather History Graph

Daily Weather History Graph

Search for Another Location

Airport or City:

Trip Planner

Search our weather history database for the weather conditions in past years. The results will help you decide how hot, cold, wet, or windy it might be!

Date:

Astronomy

Dec. 16, 2013 Rise Set
Actual Time 7:46 AM CET 4:54 PM CET
Civil Twilight 7:14 AM CET 5:26 PM CET
Nautical Twilight 6:39 AM CET 6:01 PM CET
Astronomical Twilight 6:05 AM CET 6:35 PM CET
Moon 4:33 PM CET (12/16) 6:39 AM CET (12/16)
Length of Visible Light 10h 11m
Length of Day
9h 08m
Waxing Gibbous, 99% of the Moon is Illuminated
Dec 16
Waxing Gibbous
Dec 17
Full
Dec 25
Last Quarter
Jan 1
New
Jan 8
First Quarter

Hourly Weather History & Observations

Time (CET) Temp. Windchill Dew Point Humidity Pressure Visibility Wind Dir Wind Speed Gust Speed Precip Events Conditions
12:00 AM 44.6 °F 40.2 °F 41.0 °F 87% 30.54 in - NE 8.1 mph - N/A   Clear
12:30 AM 42.8 °F 38.0 °F 39.2 °F 87% 30.54 in 6.2 mi NE 8.1 mph - N/A   Unknown
1:00 AM 43 °F - 39 °F 82% 30.55 in 28 mi NE 8.1 mph - -   Clear
1:00 AM 42.8 °F 38.0 °F 39.2 °F 87% 30.54 in 6.2 mi NE 8.1 mph - N/A   Unknown
1:30 AM 42.8 °F 38.0 °F 39.2 °F 87% 30.54 in 6.2 mi NE 8.1 mph - N/A   Unknown
2:00 AM 42.8 °F 37.5 °F 39.2 °F 87% 30.54 in 6.2 mi NE 9.2 mph - N/A   Unknown
2:30 AM 42.8 °F 38.0 °F 39.2 °F 87% 30.54 in 6.2 mi NE 8.1 mph - N/A   Unknown
3:00 AM 41.0 °F 35.2 °F 39.2 °F 93% 30.54 in 6.2 mi ENE 9.2 mph - N/A   Unknown
3:30 AM 41.0 °F 35.8 °F 37.4 °F 87% 30.54 in 6.2 mi NE 8.1 mph - N/A   Unknown
4:00 AM 41 °F - 38 °F 85% 30.55 in 28 mi NE 8.1 mph - -   Clear
4:00 AM 41.0 °F 35.8 °F 37.4 °F 87% 30.54 in 6.2 mi NE 8.1 mph - N/A   Unknown
4:30 AM 42.8 °F 37.5 °F 39.2 °F 87% 30.54 in 6.2 mi NE 9.2 mph - N/A   Unknown
5:00 AM 41.0 °F 35.8 °F 37.4 °F 87% 30.51 in 6.2 mi NE 8.1 mph - N/A   Unknown
5:30 AM 41.0 °F 34.7 °F 37.4 °F 87% 30.51 in 6.2 mi NNE 10.4 mph - N/A   Unknown
6:00 AM 41.0 °F 35.2 °F 37.4 °F 87% 30.51 in - NE 9.2 mph - N/A   Clear
6:30 AM 41.0 °F 35.2 °F 37.4 °F 87% 30.51 in - NNE 9.2 mph - N/A   Clear
7:00 AM 41 °F - 38 °F 85% 30.54 in 28 mi NE 9.2 mph - -  
7:00 AM 41.0 °F 35.2 °F 37.4 °F 87% 30.54 in - NE 9.2 mph - N/A   Clear
7:30 AM 41.0 °F 35.8 °F 37.4 °F 87% 30.54 in - NE 8.1 mph - N/A   Clear
8:00 AM 41.0 °F 35.2 °F 37.4 °F 87% 30.54 in - NE 9.2 mph - N/A   Clear
8:30 AM 39.2 °F 33.0 °F 35.6 °F 87% 30.54 in - NE 9.2 mph - N/A   Clear
9:00 AM 42.8 °F 36.6 °F 39.2 °F 87% 30.54 in - NE 11.5 mph - N/A   Clear
9:30 AM 46.4 °F 42.9 °F 39.2 °F 76% 30.57 in - NE 6.9 mph - N/A   Clear
10:00 AM 49 °F - 41 °F 67% 30.58 in 28 mi NE 5.8 mph - -  
10:00 AM 48.2 °F - 41.0 °F 76% 30.57 in - NE 5.8 mph - N/A   Clear
10:07 AM 50.0 °F - 41.0 °F 71% 30.57 in 6.2 mi ENE 5.8 mph - N/A   Partly Cloudy
10:30 AM 51.8 °F - 42.8 °F 71% 30.57 in 6.2 mi NE 5.8 mph - N/A   Partly Cloudy
11:00 AM 55.4 °F - 42.8 °F 63% 30.57 in 6.2 mi NE 3.5 mph - N/A   Partly Cloudy
11:30 AM 59.0 °F - 42.8 °F 55% 30.57 in 6.2 mi Variable 2.3 mph - N/A   Partly Cloudy
12:00 PM 59.0 °F - 44.6 °F 59% 30.54 in 6.2 mi SW 3.5 mph - N/A   Partly Cloudy
12:30 PM 59.0 °F - 46.4 °F 63% 30.54 in 6.2 mi SW 4.6 mph - N/A   Partly Cloudy
1:00 PM 60 °F - 47 °F 53% 30.54 in 25 mi SSW 4.6 mph - -   Clear
1:00 PM 59.0 °F - 46.4 °F 63% 30.54 in 6.2 mi SW 4.6 mph - N/A   Partly Cloudy
1:30 PM 59.0 °F - 48.2 °F 67% 30.51 in 6.2 mi SW 5.8 mph - N/A   Partly Cloudy
2:00 PM 59.0 °F - 48.2 °F 67% 30.51 in 6.2 mi SSW 4.6 mph - N/A   Partly Cloudy
2:30 PM 60.8 °F - 48.2 °F 63% 30.51 in 6.2 mi SSW 4.6 mph - N/A   Partly Cloudy
3:00 PM 60.8 °F - 48.2 °F 63% 30.51 in 6.2 mi SSW 4.6 mph - N/A   Partly Cloudy
3:30 PM 60.8 °F - 48.2 °F 63% 30.51 in - SSW 3.5 mph - N/A   Clear
4:00 PM 59 °F - 48 °F 59% 30.52 in 25 mi SW 4.6 mph - -  
4:00 PM 59.0 °F - 48.2 °F 67% 30.51 in - SW 4.6 mph - N/A   Clear
4:30 PM 57.2 °F - 48.2 °F 72% 30.51 in - SSW 3.5 mph - N/A   Clear
5:00 PM 54 °F - 47 °F 71% 30.53 in 25 mi SE 3.5 mph - -  
5:00 PM 55.4 °F - 48.2 °F 77% 30.51 in - South 3.5 mph - N/A   Clear
5:30 PM 51.8 °F - 46.4 °F 82% 30.51 in - Variable 1.2 mph - N/A   Clear
6:00 PM 50 °F - 46 °F 79% 30.54 in 25 mi ENE 5.8 mph - -  
6:00 PM 50.0 °F - 46.4 °F 87% 30.51 in - ENE 5.8 mph - N/A   Clear
6:30 PM 50.0 °F - 46.4 °F 87% 30.54 in - ENE 8.1 mph - N/A   Clear
7:00 PM 48 °F - 44 °F 83% 30.54 in 12 mi NE 8.1 mph - -  
7:00 PM 48.2 °F - 44.6 °F 87% 30.54 in - NE 8.1 mph - N/A   Clear
7:30 PM 46.4 °F 42.9 °F 42.8 °F 87% 30.54 in - NE 6.9 mph - N/A   Clear
8:00 PM 46.4 °F 42.9 °F 42.8 °F 87% 30.54 in - NE 6.9 mph - N/A   Clear
8:30 PM 44.6 °F 40.7 °F 41.0 °F 87% 30.54 in - NE 6.9 mph - N/A   Clear
9:00 PM 44.6 °F 40.2 °F 41.0 °F 87% 30.54 in - NE 8.1 mph - N/A   Clear
9:30 PM 42.8 °F 37.5 °F 41.0 °F 93% 30.54 in - NE 9.2 mph - N/A   Clear
10:00 PM 43 °F - 41 °F 88% 30.54 in 9 mi NE 8.1 mph - -  
10:00 PM 42.8 °F 37.5 °F 41.0 °F 93% 30.54 in - NE 9.2 mph - N/A   Clear
10:30 PM 42.8 °F 38.0 °F 41.0 °F 93% 30.51 in - NE 8.1 mph - N/A   Clear
11:00 PM 43 °F - 40 °F 85% 30.53 in 9 mi NE 9.2 mph - -  
11:00 PM 42.8 °F 38.0 °F 41.0 °F 93% 30.51 in - NE 8.1 mph - N/A   Clear
11:30 PM 42.8 °F 38.6 °F 39.2 °F 87% 30.51 in - NE 6.9 mph - N/A   Clear